FENGYUN 1C DEB

Satellite information

Favourite Embed

Satellite Type and Status

DEBRISIN ORBIT

Key statistics

Satellite FENGYUN 1C DEB at a glance.

Uptime

9715

Days in orbit

Revolutions

≈ 14.3

Per day

Orbit

SSO

Sun Synchronous Orbit

Inclination

101.0

Latest

Satellite identification and parameters

Extended collection of information and parameters for FENGYUN 1C DEB.

Object identification

Identified? True

Debris? True

Object name: FENGYUN 1C DEB

International designator: 1999-025AND

Object number (NORAD): 30622

Object ID (CCSDS): 30622

Country: PEOPLES REPUBLIC OF CHINA (PRC)

Current information (Y/N): Y

RCS size: SMALL

Orbital parameters

Period: 100.614 minutes

Inclination: 101.0026 deg

SMA: 7165.809 km

Apoapsis: 839.531 km

Periapsis: 735.817 km

RAAN: 358.3422 deg

Eccentricy: 0.00723671

Argument of periapsis: 14.6776 deg

Mean anomaly: 158.6779 deg

Mean motion: 14.31215229 rev/day

Mean motion (dot): 0.00012843 rev/day2

B* drag term: 0.0047370568 1/REarth

Two-line elements (TLE)

Creation date: Dec. 13, 2025, 4:32 a.m.

Reference frame: TEME

Reference center: EARTH

Epoch: Dec. 12, 2025, 6:56 p.m. UTC

TLE line 0: 0 FENGYUN 1C DEB

TLE line 1: 1 30622U 99025AND 25346.78915810 .00012843 00000-0 47371-2 0 9999

TLE line 2: 2 30622 101.0026 358.3422 0072367 14.6776 158.6779 14.31215229687989

Live tracking on map

Real-time ground track for satellite FENGYUN 1C DEB.

In-orbit conjunctions

A list of the most updated potential collisions computed for object FENGYUN 1C DEB.

Target Orbit TCA Probability of collision Miss distance Type
SL-8 R/B LEO 2025-05-18 22:20:49 0.0003638916 21.0 (m) ROCKET BODY
RADCAL LEO 2025-01-30 04:28:21 0.0001979746 671.0 (m) PAYLOAD
DELTA 1 DEB SSO 2024-09-24 16:04:24 0.0002554456 253.0 (m) DEBRIS
METEOR 1-16 LEO 2024-09-11 00:30:40 0.0001079578 173.0 (m) PAYLOAD
FENGYUN 1C DEB SSO 2024-07-11 13:21:31 0.0001172035 226.0 (m) DEBRIS

Associated space launch

Chinese polar orbiting meteorological satellite

FENGYUN 1C DEB was lifted into orbit during the mission ‘Long March 4B | Feng Yun 1C’, on board a Long March 4B space rocket.

The launch took place on May 10, 1999, 1:33 a.m. from Launch Complex 7.

For more information about the launch, click the button.

Launch to space Long March 4B | Feng Yun 1C
Long March 4B | Feng Yun 1C

Agency: N/A

Status: Launch Successful

Launch date: May 10, 1999, 1:33 a.m. UTC

Rocket: Long March 4B

Launch pad: Launch Complex 7

Location: Taiyuan Satellite Launch Center, People's Republic of China

...

Latest news about this satellite

There are no fresh news available about this satellite. Check back as we update our databases every day.


Newsletter sign-up

Weekly statistics, charts and insights to help you stay on top of the space industry.